Location: Asheville, NC
(35.6000°N, 82.5500°W)
Time: 15:30:42
(UTC-04:00)

RS-15 - Pass Details

Date: 13 March 2018
Orbit: 1890 x 2154 km, 64.8° (Epoch: 24 June)

Event Time Altitude Azimuth Distance (km) Brightness Sun altitude
Exits shadow 04:45:09 10° 312° (NW) 4,643 9.8 -36.1°
Reaches altitude 10° 04:45:18 10° 312° (NW) 4,624 9.8 -36.1°
Maximum altitude 04:51:39 15° 345° (NNW) 4,151 9.8 -35.0°
Drops below altitude 10° 04:57:55 10° 18° (NNE) 4,525 10.4 -33.8°
Sets 05:03:46 0° 41° (NE) 5,470 11.2 -32.7°
